This is the latest recevied weather packets stored in our database for station/object IN3MWE-10. If no packets are shown the sender has not sent any weather packets the latest 10 day(s).
| Time | Temp. | Humidity | Pressure | Rain* | Wind** | Luminosity | Snow |
|---|---|---|---|---|---|---|---|
| 1787988915 | 23.89° C | 78% | 980.4 hPa | - | - | - | - |
| 1787988015 | 20.56° C | 100% | 980.4 hPa | - | - | - | - |
| 1787987115 | 20° C | 100% | 980.4 hPa | - | - | - | - |
| 1787986215 | 20° C | 100% | 980.6 hPa | - | - | - | - |
| 1787985315 | 20° C | 100% | 980.5 hPa | - | - | - | - |
| 1787984414 | 19.44° C | 100% | 980.5 hPa | - | - | - | - |
| 1787983514 | 19.44° C | 100% | 980.4 hPa | - | - | - | - |
| 1787982614 | 18.89° C | 100% | 980.3 hPa | - | - | - | - |
| 1787981714 | 18.89° C | 100% | 980.2 hPa | - | - | - | - |
| 1787980814 | 18.89° C | 100% | 980.2 hPa | - | - | - | - |
| 1787979914 | 18.89° C | 100% | 980 hPa | - | - | - | - |
| 1787979014 | 18.89° C | 100% | 979.9 hPa | - | - | - | - |
| 1787978113 | 19.44° C | 100% | 979.6 hPa | - | - | - | - |
| 1787977213 | 19.44° C | 100% | 979.7 hPa | - | - | - | - |
| 1787976313 | 19.44° C | 100% | 979.5 hPa | - | - | - | - |
| 1787975413 | 19.44° C | 100% | 979.4 hPa | - | - | - | - |
| 1787974513 | 19.44° C | 100% | 979.4 hPa | - | - | - | - |
| 1787973613 | 20° C | 100% | 979.5 hPa | - | - | - | - |
| 1787972712 | 19.44° C | 100% | 979.7 hPa | - | - | - | - |
| 1787971827 | 20° C | 100% | 979.5 hPa | - | - | - | - |
| 1787970927 | 19.44° C | 100% | 979.3 hPa | - | - | - | - |
| 1787970026 | 19.44° C | 100% | 979.4 hPa | - | - | - | - |
| 1787969126 | 19.44° C | 100% | 979.4 hPa | - | - | - | - |
| 1787968226 | 19.44° C | 100% | 979.2 hPa | - | - | - | - |
| 1787967326 | 19.44° C | 100% | 979.1 hPa | - | - | - | - |
* Rain since midnight (hover to see other rain measurements)
** Current wind speed in m/s (hover to see current wind gust speed)